DW8482 Tortoreto Alto IT current weather conditions

sailwx.info

Wind from 144 at 1 knots gusting 4

Air temperature 23.3° C
Dewpoint 18.2° C

Last reported at 2017-Jul-27 18:09 UTC.
Time now 2017-Jul-27 18:28 UTC

Location: N 42°48' E 013°54'.
View on Google Maps.

See reports from other nearby stations

  
Tides and Currents Weather Stations Pressure Air Temp Water Temp Dewpoint Dewpoint Depression Visibility Wind Speed Wind Dir Waves Ship Positions
date/time (UTC)wind fromknots sea level pressurealtimeterstation pressurevisibilityair tempwater tempwave heightnotes
2017-Jul-27 18:09 144 1 gusting 4 23.3
2017-Jul-27 18:01 139 1 gusting 5 23.3
2017-Jul-27 17:56 130 1 gusting 4 23.3
2017-Jul-27 17:50 135 0 gusting 4 23.3
2017-Jul-27 17:45 136 0 gusting 3 23.3
2017-Jul-27 17:38 113 0 gusting 3 23.3
2017-Jul-27 17:32 113 0 gusting 2 23.9
2017-Jul-27 17:26 113 0 gusting 3 23.9
2017-Jul-27 17:21 113 0 gusting 3 23.3
2017-Jul-27 17:16 109 0 gusting 3 23.9
2017-Jul-27 17:11 108 0 gusting 3 23.9
2017-Jul-27 17:06 122 1 gusting 2 23.9
2017-Jul-27 17:00 103 0 23.9
2017-Jul-27 16:53 103 0 gusting 6 23.9
2017-Jul-27 16:48 100 0 gusting 5 23.9
2017-Jul-27 16:43 101 1 gusting 5 24.4
2017-Jul-27 16:38 102 1 gusting 5 24.4
2017-Jul-27 16:32 098 0 gusting 5 24.4
2017-Jul-27 16:28 091 0 gusting 3 24.4
2017-Jul-27 16:24 107 0 gusting 3 24.4
2017-Jul-27 16:19 070 0 gusting 3 24.4
2017-Jul-27 16:10 096 1 gusting 5 24.4
2017-Jul-27 16:06 092 1 gusting 6 24.4
2017-Jul-27 16:01 113 1 gusting 6 25.0
2017-Jul-27 15:55 105 1 gusting 5 25.0
2017-Jul-27 15:50 101 1 gusting 5 25.0
2017-Jul-27 15:41 102 0 gusting 3 25.0
2017-Jul-27 15:36 101 1 gusting 6 25.0
2017-Jul-27 15:31 087 1 gusting 6 25.0
2017-Jul-27 15:26 101 0 gusting 3 25.0
2017-Jul-27 15:22 142 1 gusting 6 25.0
2017-Jul-27 15:16 105 1 gusting 6 25.0
2017-Jul-27 15:11 096 1 gusting 6 25.0
2017-Jul-27 15:06 098 1 gusting 6 25.6
2017-Jul-27 15:01 099 1 gusting 6 25.6
2017-Jul-27 14:55 111 1 gusting 6 25.6
2017-Jul-27 14:49 099 1 gusting 6 25.6
2017-Jul-27 14:44 096 1 gusting 6 25.6
2017-Jul-27 14:39 097 1 gusting 6 25.6
2017-Jul-27 14:34 098 1 gusting 6 25.6
2017-Jul-27 14:28 092 0 gusting 4 26.1
2017-Jul-27 14:23 044 1 gusting 6 25.6
2017-Jul-27 14:17 097 1 gusting 6 25.6
2017-Jul-27 14:11 100 1 gusting 1 25.6
2017-Jul-27 14:03 065 0 gusting 5 25.6
2017-Jul-27 13:58 093 1 gusting 4 25.6
2017-Jul-27 13:54 091 1 gusting 5 25.6
2017-Jul-27 13:48 086 1 gusting 5 25.6
2017-Jul-27 13:40 102 1 gusting 6 25.6
2017-Jul-27 13:34 105 1 gusting 8 25.6
2017-Jul-27 13:29 045 2 gusting 8 25.6
2017-Jul-27 13:22 040 1 gusting 6 25.6
2017-Jul-27 13:05 061 1 gusting 6 25.6
2017-Jul-27 12:58 080 2 gusting 8 25.6
2017-Jul-27 12:53 111 3 gusting 8 25.6
2017-Jul-27 12:48 086 3 gusting 8 25.6
2017-Jul-27 12:43 040 2 gusting 8 25.6
2017-Jul-27 12:38 044 2 gusting 9 25.6
2017-Jul-27 12:33 056 2 gusting 9 25.6
2017-Jul-27 12:28 074 2 gusting 9 25.6
2017-Jul-27 12:23 090 2 gusting 9 25.6
2017-Jul-27 12:18 107 2 gusting 8 25.6
2017-Jul-27 12:12 088 2 gusting 7 25.6
2017-Jul-27 12:08 092 2 gusting 7 25.6
2017-Jul-27 12:03 099 2 gusting 7 26.1
2017-Jul-27 11:57 100 2 gusting 7 26.1
2017-Jul-27 11:52 036 1 gusting 6 26.1
2017-Jul-27 11:48 018 1 gusting 7 26.1
2017-Jul-27 11:42 058 2 gusting 7 26.1
2017-Jul-27 11:37 058 2 gusting 7 26.1
2017-Jul-27 11:33 088 2 gusting 8 26.1
2017-Jul-27 11:28 043 3 gusting 8 26.1
2017-Jul-27 11:22 065 3 gusting 10 26.1
2017-Jul-27 11:18 032 2 gusting 10 26.1
2017-Jul-27 11:12 059 2 gusting 9 26.7
2017-Jul-27 11:07 071 2 gusting 9 26.7
2017-Jul-27 11:03 027 2 gusting 7 26.7
2017-Jul-27 10:57 101 3 gusting 7 26.7
2017-Jul-27 10:53 039 3 gusting 7 26.7
2017-Jul-27 10:48 037 2 gusting 6 26.7
2017-Jul-27 10:42 092 1 gusting 6 26.7
2017-Jul-27 10:38 067 1 gusting 5 26.7
2017-Jul-27 10:32 042 1 gusting 8 26.7
2017-Jul-27 10:27 047 1 gusting 8 26.7
2017-Jul-27 10:22 084 2 gusting 7 26.1
2017-Jul-27 10:17 068 2 gusting 10 26.1
2017-Jul-27 10:12 096 1 gusting 10 26.1
2017-Jul-27 10:07 068 2 gusting 6 26.1
2017-Jul-27 10:02 078 2 gusting 10 26.1
2017-Jul-27 09:57 100 2 gusting 10 26.1
2017-Jul-27 09:52 115 2 gusting 7 26.1
2017-Jul-27 09:47 072 1 gusting 6 26.1
2017-Jul-27 09:42 046 2 gusting 8 26.1
2017-Jul-27 09:37 077 2 gusting 8 26.1
2017-Jul-27 09:32 111 1 gusting 7 26.7
2017-Jul-27 09:27 053 1 gusting 6 26.7
2017-Jul-27 09:22 063 1 gusting 6 26.7
2017-Jul-27 09:17 091 1 gusting 6 26.7
2017-Jul-27 09:12 069 1 gusting 7 26.7
2017-Jul-27 09:07 048 2 gusting 7 26.1
2017-Jul-27 09:02 063 2 gusting 7 26.7
2017-Jul-27 08:57 100 1 gusting 7 26.7
2017-Jul-27 08:52 103 0 gusting 6 27.2
2017-Jul-27 08:47 096 1 gusting 6 26.7
2017-Jul-27 08:42 104 1 gusting 6 27.2
2017-Jul-27 08:37 055 1 gusting 5 27.8
2017-Jul-27 08:32 081 0 gusting 6 27.2
2017-Jul-27 08:27 036 1 gusting 9 27.2
2017-Jul-27 08:22 028 3 gusting 9 26.7
2017-Jul-27 08:17 245 2 gusting 8 26.7
2017-Jul-27 08:12 254 1 gusting 6 26.7
2017-Jul-27 08:07 267 2 gusting 6 26.7
2017-Jul-27 08:02 250 1 gusting 6 26.7
2017-Jul-27 07:57 267 1 gusting 6 26.7
2017-Jul-27 07:52 213 0 gusting 4 26.7
2017-Jul-27 07:47 270 0 gusting 4 26.7
2017-Jul-27 07:42 287 0 gusting 2 26.1
2017-Jul-27 07:37 287 0 gusting 2 26.1
2017-Jul-27 07:32 286 25.6
2017-Jul-27 07:27 286 0 gusting 3 25.6
2017-Jul-27 07:22 286 0 gusting 3 25.0
2017-Jul-27 07:17 286 0 gusting 2 25.0
2017-Jul-27 07:12 286 1 gusting 2 24.4
2017-Jul-27 07:07 286 1 gusting 3 23.9
2017-Jul-27 07:02 286 2 gusting 3 23.9
2017-Jul-27 06:57 286 1 gusting 3 23.3
2017-Jul-27 06:52 286 1 gusting 3 23.3
2017-Jul-27 06:47 286 1 gusting 3 23.3
2017-Jul-27 06:42 286 2 gusting 5 23.3
2017-Jul-27 06:37 286 2 gusting 5 22.8
2017-Jul-27 06:32 286 2 gusting 5 23.3
2017-Jul-27 06:27 286 2 gusting 5 23.3
2017-Jul-27 06:22 288 1 gusting 3 23.3
2017-Jul-27 06:17 288 1 gusting 3 22.8
2017-Jul-27 06:12 288 1 gusting 3 22.2
2017-Jul-27 06:07 289 1 gusting 3 21.7
2017-Jul-27 06:02 289 2 gusting 4 21.7
2017-Jul-27 05:57 289 2 gusting 4 21.7
2017-Jul-27 05:52 289 2 gusting 4 21.7
2017-Jul-27 05:47 289 2 gusting 4 21.7
2017-Jul-27 05:42 289 3 gusting 4 21.1
2017-Jul-27 05:37 289 2 gusting 4 21.1
2017-Jul-27 05:32 289 2 gusting 4 21.1
2017-Jul-27 05:27 290 2 gusting 4 20.6
2017-Jul-27 05:22 290 2 gusting 4 20.6
2017-Jul-27 05:17 292 2 gusting 4 20.6
2017-Jul-27 05:12 294 2 gusting 4 20.6
2017-Jul-27 05:07 300 3 gusting 6 21.1
2017-Jul-27 05:02 300 3 gusting 6 20.6
2017-Jul-27 04:57 298 2 gusting 6 20.6
2017-Jul-27 04:52 296 2 gusting 6 21.1
2017-Jul-27 04:47 296 3 gusting 6 21.1
2017-Jul-27 04:42 297 3 gusting 6 20.6
2017-Jul-27 04:37 288 3 gusting 6 20.6
2017-Jul-27 04:32 279 2 gusting 6 20.6
2017-Jul-27 04:27 262 2 gusting 6 20.6
2017-Jul-27 04:22 263 3 gusting 5 20.6
2017-Jul-27 04:17 263 3 gusting 5 20.6
2017-Jul-27 04:12 249 1 gusting 5 20.6
2017-Jul-27 04:07 266 1 gusting 3 20.6
2017-Jul-27 04:02 266 1 gusting 3 20.0
2017-Jul-27 03:57 266 1 gusting 3 20.0
2017-Jul-27 03:52 266 2 gusting 5 20.6
2017-Jul-27 03:47 266 2 gusting 5 20.6
2017-Jul-27 03:42 336 2 gusting 3 20.6
2017-Jul-27 03:37 336 2 gusting 4 20.6
2017-Jul-27 03:32 336 2 gusting 4 21.1
2017-Jul-27 03:27 336 1 gusting 3 21.1
2017-Jul-27 03:22 337 1 gusting 2 21.1
2017-Jul-27 03:17 336 1 gusting 2 21.1
2017-Jul-27 03:12 337 0 gusting 2 21.1
2017-Jul-27 03:07 337 0 gusting 2 21.1
2017-Jul-27 03:02 336 1 gusting 2 21.7
2017-Jul-27 02:57 336 1 gusting 3 21.7
2017-Jul-27 02:52 336 1 gusting 3 21.7
2017-Jul-27 02:47 337 1 gusting 2 21.7
2017-Jul-27 02:42 337 1 gusting 3 21.7
2017-Jul-27 02:37 337 1 gusting 3 21.7
2017-Jul-27 02:32 337 1 gusting 2 21.7
2017-Jul-27 02:27 337 0 gusting 2 21.7
2017-Jul-27 02:22 336 21.7
2017-Jul-27 02:17 337 0 gusting 2 21.7
2017-Jul-27 02:12 337 21.1
2017-Jul-27 02:07 337 21.1
2017-Jul-27 02:02 337 21.1
2017-Jul-27 01:57 337 21.7
2017-Jul-27 01:52 336 21.7
2017-Jul-27 01:47 337 21.7
2017-Jul-27 01:42 337 0 gusting 2 21.7
2017-Jul-27 01:37 336 1 gusting 2 22.2
2017-Jul-27 01:32 336 1 gusting 2 22.2
2017-Jul-27 01:27 337 1 gusting 2 21.7
2017-Jul-27 01:22 336 0 gusting 2 21.7
2017-Jul-27 01:17 337 21.7
2017-Jul-27 01:12 337 0 gusting 3 22.2
2017-Jul-27 01:07 337 1 gusting 3 22.2
2017-Jul-27 01:02 337 2 gusting 4 22.2
2017-Jul-27 00:58 337 3 gusting 5 22.2
2017-Jul-27 00:54 337 3 gusting 6 22.8
2017-Jul-27 00:47 328 4 gusting 5 22.2
2017-Jul-27 00:32 323 3 gusting 6 22.2
2017-Jul-27 00:27 273 2 gusting 5 22.2
2017-Jul-27 00:22 267 2 gusting 5 22.2
2017-Jul-27 00:17 266 2 gusting 5 21.7
2017-Jul-27 00:12 260 2 gusting 5 21.7
2017-Jul-27 00:07 259 1 gusting 5 21.7
2017-Jul-27 00:02 259 0 gusting 5 21.1
2017-Jul-26 23:57 259 0 gusting 2 21.1
2017-Jul-26 23:52 259 1 gusting 5 21.1
2017-Jul-26 23:47 259 2 gusting 6 21.1
2017-Jul-26 23:42 259 2 gusting 6 21.1
2017-Jul-26 23:37 259 2 gusting 6 21.1
2017-Jul-26 23:32 259 2 gusting 6 21.1
2017-Jul-26 23:27 260 2 gusting 6 21.1
2017-Jul-26 23:22 260 1 gusting 6 21.1
2017-Jul-26 23:17 260 2 gusting 6 21.7
2017-Jul-26 23:12 261 2 gusting 6 21.7
2017-Jul-26 23:07 260 2 gusting 6 21.7
2017-Jul-26 23:02 258 2 gusting 6 21.1
2017-Jul-26 22:57 257 1 gusting 5 21.1
2017-Jul-26 22:52 257 2 gusting 5 21.1
2017-Jul-26 22:47 258 2 gusting 5 21.7
2017-Jul-26 22:42 259 2 gusting 5 21.7
2017-Jul-26 22:37 255 2 gusting 4 21.7
2017-Jul-26 22:32 244 2 gusting 5 21.7
2017-Jul-26 22:27 259 2 gusting 5 21.1
2017-Jul-26 22:22 259 2 gusting 5 21.1
2017-Jul-26 22:17 259 1 gusting 5 21.1
2017-Jul-26 22:12 269 2 gusting 5 21.1
2017-Jul-26 22:07 271 1 gusting 5 21.1
2017-Jul-26 22:02 274 2 gusting 3 21.1
2017-Jul-26 21:57 274 2 gusting 3 21.1
2017-Jul-26 21:52 274 2 gusting 3 21.7
2017-Jul-26 21:47 274 1 gusting 5 21.7
2017-Jul-26 21:42 274 2 gusting 5 21.1
2017-Jul-26 21:37 265 2 gusting 5 21.1
2017-Jul-26 21:32 264 2 gusting 5 21.1
2017-Jul-26 21:27 265 2 gusting 5 21.7
2017-Jul-26 21:22 264 2 gusting 3 21.7
2017-Jul-26 21:17 264 2 gusting 3 21.7
2017-Jul-26 21:12 264 2 gusting 6 21.7
2017-Jul-26 21:07 264 2 gusting 6 21.7
2017-Jul-26 21:02 267 2 gusting 3 21.7
2017-Jul-26 20:57 267 2 gusting 5 21.7
2017-Jul-26 20:52 267 2 gusting 5 21.7
2017-Jul-26 20:47 267 2 gusting 5 21.7
2017-Jul-26 20:42 267 2 gusting 5 21.7
2017-Jul-26 20:32 254 2 gusting 3 21.7
2017-Jul-26 20:22 252 1 gusting 4 21.7
2017-Jul-26 20:17 252 2 gusting 6 21.7
2017-Jul-26 20:12 252 2 gusting 6 21.7
2017-Jul-26 20:07 252 1 gusting 6 21.7
2017-Jul-26 20:02 255 1 gusting 3 21.7
2017-Jul-26 19:57 255 1 gusting 4 21.7
2017-Jul-26 19:52 253 1 gusting 4 21.7
2017-Jul-26 19:47 244 2 gusting 6 21.7
2017-Jul-26 19:42 221 3 gusting 7 21.1
2017-Jul-26 19:36 240 2 gusting 7 21.1
2017-Jul-26 19:31 236 2 gusting 6 21.1
2017-Jul-26 19:26 201 3 gusting 7 21.1
2017-Jul-26 19:21 252 3 gusting 7 21.7
2017-Jul-26 19:17 234 3 gusting 8 21.7
2017-Jul-26 19:11 242 3 gusting 8 21.7
2017-Jul-26 19:07 219 3 gusting 7 21.7
2017-Jul-26 19:01 211 3 gusting 7 21.7
2017-Jul-26 18:56 213 3 gusting 8 22.2
2017-Jul-26 18:51 230 4 gusting 8 22.2
2017-Jul-26 18:46 225 5 gusting 14 22.2
2017-Jul-26 18:42 261 5 gusting 14 22.2
2017-Jul-26 18:37 225 3 gusting 8 22.2
2017-Jul-26 18:32 254 2 gusting 7 22.2
2017-Jul-26 18:26 236 2 gusting 6 22.2
2017-Jul-26 18:21 258 2 gusting 9 22.8
2017-Jul-26 18:16 231 3 gusting 9 22.8
2017-Jul-26 18:11 185 4 gusting 12 22.8
2017-Jul-26 18:06 296 4 gusting 12 22.8
2017-Jul-26 18:01 225 3 gusting 9 23.3
2017-Jul-26 17:56 229 3 gusting 7 23.3
2017-Jul-26 17:52 187 1 gusting 6 23.3
2017-Jul-26 17:46 224 1 gusting 4 23.3
2017-Jul-26 17:41 221 2 gusting 5 23.3
2017-Jul-26 17:36 193 1 gusting 5 23.3
2017-Jul-26 17:31 198 1 gusting 4 23.3
2017-Jul-26 17:26 183 1 gusting 4 23.3
2017-Jul-26 17:21 216 1 gusting 4 23.3
2017-Jul-26 17:16 210 2 gusting 6 23.9
2017-Jul-26 17:11 219 1 gusting 6 23.9
2017-Jul-26 17:06 271 0 gusting 5 23.9
2017-Jul-26 17:01 277 0 gusting 5 23.9
2017-Jul-26 16:56 281 1 gusting 5 23.3
2017-Jul-26 16:52 281 2 gusting 5 23.3
2017-Jul-26 16:46 281 2 gusting 6 23.3
2017-Jul-26 16:41 282 2 gusting 6 23.3
2017-Jul-26 16:36 283 3 gusting 6 23.3
2017-Jul-26 16:31 279 3 gusting 6 23.9
2017-Jul-26 16:26 290 3 gusting 6 23.9
2017-Jul-26 16:21 286 3 gusting 6 23.9
2017-Jul-26 16:16 281 3 gusting 6 23.9
2017-Jul-26 16:11 292 3 gusting 6 23.9
2017-Jul-26 16:06 301 3 gusting 6 23.9
2017-Jul-26 16:01 296 2 gusting 6 24.4
2017-Jul-26 15:56 331 1 gusting 5 24.4
2017-Jul-26 15:51 345 0 gusting 3 24.4
2017-Jul-26 15:46 348 0 gusting 2 23.9
2017-Jul-26 15:41 348 0 gusting 3 23.9
2017-Jul-26 15:36 348 1 gusting 3 23.9
2017-Jul-26 15:31 355 0 gusting 3 23.9
2017-Jul-26 15:26 023 23.9
2017-Jul-26 15:21 023 23.9
2017-Jul-26 15:16 023 0 gusting 3 23.9
2017-Jul-26 15:11 023 1 gusting 4 23.3
2017-Jul-26 15:06 023 1 gusting 6 23.3
2017-Jul-26 15:01 017 1 gusting 6 23.3
2017-Jul-26 14:56 031 1 gusting 8 23.3
2017-Jul-26 14:51 021 1 gusting 8 23.3
2017-Jul-26 14:46 032 1 gusting 4 23.9
2017-Jul-26 14:41 032 0 gusting 4 23.9
2017-Jul-26 14:36 039 0 gusting 4 23.9
2017-Jul-26 14:31 040 0 gusting 3 23.9
2017-Jul-26 14:26 045 23.9
2017-Jul-26 14:21 092 0 gusting 2 23.9
2017-Jul-26 14:16 097 0 gusting 2 23.9
2017-Jul-26 14:11 097 0 gusting 3 23.9
2017-Jul-26 14:06 097 0 gusting 3 24.4
2017-Jul-26 14:01 097 24.4
2017-Jul-26 13:56 097 23.9
2017-Jul-26 13:51 097 23.9
2017-Jul-26 13:46 097 23.9
2017-Jul-26 13:41 097 23.3
2017-Jul-26 13:36 097 0 gusting 2 23.3
2017-Jul-26 13:31 097 0 gusting 2 23.3
2017-Jul-26 13:26 097 23.3
2017-Jul-26 13:21 097 23.3
2017-Jul-26 13:06 097 0 gusting 2 23.3
2017-Jul-26 13:01 097 0 gusting 3 23.3
2017-Jul-26 12:56 096 0 gusting 3 23.9
2017-Jul-26 12:51 058 23.9
2017-Jul-26 12:46 059 23.3
2017-Jul-26 12:41 096 23.3
2017-Jul-26 12:36 096 23.3
2017-Jul-26 12:31 097 0 gusting 3 23.3
2017-Jul-26 12:26 097 0 gusting 3 23.3
2017-Jul-26 12:21 098 0 gusting 3 23.9
2017-Jul-26 12:16 101 0 gusting 5 23.9
2017-Jul-26 12:11 099 1 gusting 6 24.4
2017-Jul-26 12:06 105 1 gusting 6 24.4
2017-Jul-26 12:01 095 2 gusting 6 24.4
2017-Jul-26 11:56 123 2 gusting 6 25.0
2017-Jul-26 11:51 076 2 gusting 7 25.0
2017-Jul-26 11:46 094 2 gusting 7 25.6
2017-Jul-26 11:41 114 2 gusting 6 25.6
2017-Jul-26 11:36 134 2 gusting 6 26.1
2017-Jul-26 11:31 119 2 gusting 7 25.6
2017-Jul-26 11:26 135 2 gusting 7 25.6
2017-Jul-26 11:21 105 2 gusting 8 25.6
2017-Jul-26 11:16 084 3 gusting 8 26.1
2017-Jul-26 11:11 097 2 gusting 7 26.7
2017-Jul-26 11:06 109 2 gusting 6 26.7
2017-Jul-26 11:01 083 2 gusting 6 26.1
2017-Jul-26 10:56 096 2 gusting 7 26.1
2017-Jul-26 10:51 108 2 gusting 7 26.1
2017-Jul-26 10:46 103 1 gusting 7 26.1
2017-Jul-26 10:41 104 1 gusting 7 26.1
2017-Jul-26 10:36 090 1 gusting 8 26.1
2017-Jul-26 10:31 070 2 gusting 8 26.1
2017-Jul-26 10:26 030 2 gusting 7 26.1
2017-Jul-26 10:21 106 1 gusting 6 26.1
2017-Jul-26 10:16 094 1 gusting 7 26.1
2017-Jul-26 10:11 113 1 gusting 7 26.1
2017-Jul-26 10:06 093 1 gusting 5 26.1
2017-Jul-26 10:01 096 1 gusting 6 26.1
2017-Jul-26 09:56 090 1 gusting 6 26.1
2017-Jul-26 09:51 097 0 gusting 6 26.1
2017-Jul-26 09:46 084 0 gusting 6 26.1
2017-Jul-26 09:41 086 0 gusting 5 26.1
2017-Jul-26 09:36 030 1 gusting 6 26.1
2017-Jul-26 09:31 111 1 gusting 6 26.1
2017-Jul-26 09:26 105 1 gusting 6 26.1
2017-Jul-26 09:21 091 1 gusting 6 26.1
2017-Jul-26 09:16 076 1 gusting 5 25.6
2017-Jul-26 09:11 097 0 gusting 6 25.6
2017-Jul-26 09:06 069 1 gusting 6 25.6
2017-Jul-26 09:01 024 1 gusting 6 25.6
2017-Jul-26 08:56 083 0 gusting 6 26.1
2017-Jul-26 08:51 083 0 gusting 5 25.6
2017-Jul-26 08:46 088 1 gusting 6 25.6
2017-Jul-26 08:41 100 1 gusting 6 25.6
2017-Jul-26 08:36 084 1 gusting 5 25.6
2017-Jul-26 08:31 082 1 gusting 5 25.6
2017-Jul-26 08:26 157 0 gusting 5 25.6
2017-Jul-26 08:21 082 0 gusting 5 25.6
2017-Jul-26 08:16 083 0 gusting 3 25.6
2017-Jul-26 08:11 117 0 gusting 3 25.0
2017-Jul-26 08:06 117 0 gusting 3 25.0
2017-Jul-26 08:01 123 0 gusting 4 25.0
2017-Jul-26 07:56 123 1 gusting 4 24.4
2017-Jul-26 07:51 126 1 gusting 3 24.4
2017-Jul-26 07:46 087 0 gusting 3 24.4
2017-Jul-26 07:41 092 0 gusting 2 24.4
2017-Jul-26 07:36 091 0 gusting 2 24.4
2017-Jul-26 07:31 091 1 gusting 5 23.9
2017-Jul-26 07:26 134 1 gusting 5 23.9
2017-Jul-26 07:21 123 0 gusting 3 24.4
2017-Jul-26 07:16 257 0 gusting 2 23.3
2017-Jul-26 07:11 257 0 gusting 2 22.8
2017-Jul-26 07:06 257 0 gusting 2 22.8
2017-Jul-26 07:01 257 0 gusting 1 22.8
2017-Jul-26 06:56 257 0 gusting 1 22.2
2017-Jul-26 06:51 257 21.7
2017-Jul-26 06:46 257 0 gusting 3 21.1
2017-Jul-26 06:41 257 1 gusting 3 21.1
2017-Jul-26 06:36 257 1 gusting 2 21.1
2017-Jul-26 06:31 257 1 gusting 2 20.6
2017-Jul-26 06:26 257 1 gusting 3 20.0
2017-Jul-26 06:21 257 2 gusting 5 20.0
2017-Jul-26 06:16 257 1 gusting 5 20.6
2017-Jul-26 06:11 257 0 gusting 3 21.1
2017-Jul-26 06:06 257 0 gusting 1 20.6
2017-Jul-26 06:01 257 0 gusting 2 20.6
2017-Jul-26 05:56 257 1 gusting 3 20.0
2017-Jul-26 05:51 257 1 gusting 3 20.0
2017-Jul-26 05:46 257 1 gusting 3 20.0
2017-Jul-26 05:41 257 1 gusting 3 20.0
2017-Jul-26 05:36 257 2 gusting 3 20.0
2017-Jul-26 05:31 257 2 gusting 3 19.4
2017-Jul-26 05:26 257 2 gusting 5 19.4
2017-Jul-26 05:21 273 2 gusting 5 19.4
2017-Jul-26 05:16 251 2 gusting 3 18.9
2017-Jul-26 05:11 251 2 gusting 4 18.3
2017-Jul-26 05:06 251 3 gusting 6 18.3
2017-Jul-26 05:01 251 3 gusting 6 18.3
2017-Jul-26 04:56 254 3 gusting 6 18.3
2017-Jul-26 04:51 254 2 gusting 4 18.3
2017-Jul-26 04:46 254 2 gusting 4 18.3
2017-Jul-26 04:41 254 2 gusting 3 18.3
2017-Jul-26 04:36 254 2 gusting 3 17.8
2017-Jul-26 04:31 254 2 gusting 3 17.8
2017-Jul-26 04:26 254 3 gusting 4 17.8
2017-Jul-26 04:21 254 3 gusting 4 17.8
2017-Jul-26 04:16 256 2 gusting 3 17.8
2017-Jul-26 04:11 256 3 gusting 5 17.8
2017-Jul-26 04:06 256 3 gusting 5 18.3
2017-Jul-26 04:01 256 3 gusting 5 18.3
2017-Jul-26 03:56 256 3 gusting 5 18.3
2017-Jul-26 03:51 250 2 gusting 5 18.3
2017-Jul-26 03:46 252 2 gusting 5 18.3
2017-Jul-26 03:41 268 2 gusting 3 18.9
2017-Jul-26 03:36 279 2 gusting 3 18.9
2017-Jul-26 03:31 280 2 gusting 3 19.4
2017-Jul-26 03:26 280 1 gusting 3 19.4
2017-Jul-26 03:21 280 0 gusting 2 19.4
2017-Jul-26 03:16 280 0 gusting 2 19.4
2017-Jul-26 03:11 280 1 gusting 5 19.4
2017-Jul-26 03:06 280 3 gusting 6 19.4
2017-Jul-26 03:01 276 3 gusting 6 19.4
2017-Jul-26 02:56 320 4 gusting 8 19.4
2017-Jul-26 02:51 304 6 gusting 8 19.4
2017-Jul-26 02:46 279 5 gusting 8 18.9
2017-Jul-26 02:41 286 4 gusting 8 18.9
2017-Jul-26 02:35 288 2 gusting 7 18.9
2017-Jul-26 02:31 256 2 gusting 6 18.9
2017-Jul-26 02:26 283 3 gusting 6 18.9
2017-Jul-26 02:20 292 2 gusting 6 18.9
2017-Jul-26 02:16 302 1 gusting 6 18.9
2017-Jul-26 02:10 323 2 gusting 6 18.9
2017-Jul-26 02:05 331 1 gusting 6 18.3
2017-Jul-26 02:01 239 18.3
2017-Jul-26 01:55 239 18.3
2017-Jul-26 01:50 239 1 gusting 6 18.3
2017-Jul-26 01:45 239 3 gusting 6 18.9
2017-Jul-26 01:40 246 3 gusting 6 18.9
2017-Jul-26 01:35 232 3 gusting 6 18.9
2017-Jul-26 01:30 233 2 gusting 6 18.3
2017-Jul-26 01:26 236 2 gusting 4 18.3
2017-Jul-26 01:20 238 2 gusting 4 18.3
2017-Jul-26 01:15 235 2 gusting 4 18.3
2017-Jul-26 01:10 244 1 gusting 3 18.3
2017-Jul-26 01:05 234 0 gusting 3 18.3
2017-Jul-26 01:00 234 1 gusting 4 18.3
2017-Jul-26 00:55 242 2 gusting 5 18.3
2017-Jul-26 00:50 229 3 gusting 6 18.3
2017-Jul-26 00:45 226 4 gusting 6 18.3
2017-Jul-26 00:40 243 4 gusting 6 18.3
2017-Jul-26 00:35 238 2 gusting 6 18.3
2017-Jul-26 00:30 237 1 gusting 4 18.3
2017-Jul-26 00:25 234 0 gusting 2 18.3
2017-Jul-26 00:20 241 1 gusting 6 18.3
2017-Jul-26 00:15 241 2 gusting 6 18.9
2017-Jul-26 00:10 227 3 gusting 7 18.9
2017-Jul-26 00:05 227 4 gusting 10 18.9
2017-Jul-26 00:01 253 4 gusting 10 18.9
2017-Jul-25 23:55 255 3 gusting 7 18.9
2017-Jul-25 23:50 251 4 gusting 8 18.3
2017-Jul-25 23:45 224 4 gusting 9 18.3
2017-Jul-25 23:40 237 4 gusting 9 18.3
2017-Jul-25 23:35 238 4 gusting 7 18.3
2017-Jul-25 23:30 267 4 gusting 8 18.3
2017-Jul-25 23:25 255 4 gusting 8 18.9
2017-Jul-25 23:20 229 3 gusting 6 18.9
2017-Jul-25 23:15 257 5 gusting 13 18.9
2017-Jul-25 23:11 256 6 gusting 13 18.9
2017-Jul-25 23:07 276 6 gusting 13 18.9
2017-Jul-25 23:02 250 6 gusting 13 18.9
2017-Jul-25 22:58 273 6 gusting 12 18.9
2017-Jul-25 22:54 257 7 gusting 16 18.9
2017-Jul-25 22:46 251 9 gusting 17 19.4
2017-Jul-25 22:42 240 9 gusting 17 19.4
2017-Jul-25 22:38 259 7 gusting 17 19.4
2017-Jul-25 22:33 215 4 gusting 17 19.4
2017-Jul-25 22:29 216 3 gusting 7 20.0
2017-Jul-25 22:25 250 2 gusting 7 20.0
2017-Jul-25 22:15 186 20.0
2017-Jul-25 22:11 233 20.0
2017-Jul-25 22:06 233 0 gusting 4 20.0
2017-Jul-25 22:01 233 2 gusting 6 20.0
2017-Jul-25 21:53 232 3 gusting 6 20.0
2017-Jul-25 21:45 250 2 gusting 4 19.4
2017-Jul-25 21:38 250 2 gusting 4 19.4
2017-Jul-25 21:32 250 2 gusting 4 20.0
2017-Jul-25 21:27 250 2 gusting 4 20.0
2017-Jul-25 21:20 244 2 gusting 4 20.0
2017-Jul-25 21:15 237 2 gusting 3 20.0
2017-Jul-25 21:10 237 2 gusting 3 20.0
2017-Jul-25 21:05 237 2 gusting 3 20.0
2017-Jul-25 21:00 237 2 gusting 3 20.0
2017-Jul-25 20:55 237 2 gusting 3 20.0
2017-Jul-25 20:50 237 2 gusting 3 20.0
2017-Jul-25 20:45 237 2 gusting 3 20.0
2017-Jul-25 20:40 237 1 gusting 2 19.4
2017-Jul-25 20:35 237 1 gusting 2 19.4
2017-Jul-25 20:30 237 1 gusting 2 20.0
2017-Jul-25 20:25 237 1 gusting 3 20.0
2017-Jul-25 20:20 237 1 gusting 3 20.0
2017-Jul-25 20:15 237 20.0
2017-Jul-25 20:10 155 20.0
2017-Jul-25 20:05 155 20.0
2017-Jul-25 20:00 155 20.0
2017-Jul-25 19:55 155 20.0
2017-Jul-25 19:50 155 20.0
2017-Jul-25 19:45 155 20.0
2017-Jul-25 19:40 148 20.0
2017-Jul-25 19:35 148 20.0
2017-Jul-25 19:30 148 0 gusting 2 20.0
2017-Jul-25 19:25 148 0 gusting 2 20.0
2017-Jul-25 19:20 336 20.0
2017-Jul-25 19:15 336 20.0
2017-Jul-25 19:10 336 20.0
2017-Jul-25 19:05 336 0 gusting 3 20.6
2017-Jul-25 19:00 336 1 gusting 3 20.6
2017-Jul-25 18:55 039 0 gusting 2 20.6
2017-Jul-25 18:50 130 20.0
2017-Jul-25 18:45 130 20.0
2017-Jul-25 18:40 130 20.0
2017-Jul-25 18:35 130 20.0
2017-Jul-25 18:30 130 20.0
2017-Jul-25 18:25 130 20.0
2017-Jul-25 18:20 130 20.6
2017-Jul-25 18:15 130 20.6
2017-Jul-25 18:10 130 20.6
2017-Jul-25 18:05 130 20.6
2017-Jul-25 18:00 130 20.6